******** Week 360 almanac for PRN-1 ******** ID: 1 Health: 0 Eccentricity: 0.001579284668 Time of Applicability(s): 147456 Orbital Inclination(rad): 0.9583389177 Rate of Right Ascen(r/s): -7.726036106e-09 SQRT(A) (m 1/2): 5153.581055 Right Ascen at Week(rad): 3.137453229 Argument of Perigee(rad): 0.07973966199 Mean Anom(rad): 0.653108799 Af0(s): 0.0002562492676 Af1(s/s): -7.275958e-12 week: 360 ******** Week 360 almanac for PRN-2 ******** ID: 2 Health: 0 Eccentricity: 0.01690864563 Time of Applicability(s): 147456 Orbital Inclination(rad): 0.9635940004 Rate of Right Ascen(r/s): -7.600316584e-09 SQRT(A) (m 1/2): 5153.550781 Right Ascen at Week(rad): 2.975012678 Argument of Perigee(rad): -0.8124570455 Mean Anom(rad): 2.110395042 Af0(s): 3.919106445e-05 Af1(s/s): 7.275958e-12 week: 360 ******** Week 360 almanac for PRN-3 ******** ID: 3 Health: 0 Eccentricity: 0.006478309631 Time of Applicability(s): 147456 Orbital Inclination(rad): 0.9932070201 Rate of Right Ascen(r/s): -7.828897533e-09 SQRT(A) (m 1/2): 5153.580078 Right Ascen at Week(rad): -2.158984333 Argument of Perigee(rad): 1.202134605 Mean Anom(rad): -1.483935414 Af0(s): 0.0004371311035 Af1(s/s): -1.091394e-11 week: 360 ******** Week 360 almanac for PRN-4 ******** ID: 4 Health: 0 Eccentricity: 0.003716945648 Time of Applicability(s): 147456 Orbital Inclination(rad): 0.9704549691 Rate of Right Ascen(r/s): -8.126052768e-09 SQRT(A) (m 1/2): 5153.680664 Right Ascen at Week(rad): -1.088042911 Argument of Perigee(rad): -2.879790146 Mean Anom(rad): 1.499566589 Af0(s): 3.69300415e-05 Af1(s/s): 3.637979e-12 week: 360 ******** Week 360 almanac for PRN-5 ******** ID: 5 Health: 0 Eccentricity: 0.005389690399 Time of Applicability(s): 147456 Orbital Inclination(rad): 0.9797906803 Rate of Right Ascen(r/s): -7.954617056e-09 SQRT(A) (m 1/2): 5153.655273 Right Ascen at Week(rad): -2.218731686 Argument of Perigee(rad): 1.417014379 Mean Anom(rad): 2.162432419 Af0(s): -0.0001816355103 Af1(s/s): 0 week: 360 ******** Week 360 almanac for PRN-6 ******** ID: 6 Health: 0 Eccentricity: 0.003862380981 Time of Applicability(s): 147456 Orbital Inclination(rad): 0.9872208998 Rate of Right Ascen(r/s): -7.417451824e-09 SQRT(A) (m 1/2): 5153.598145 Right Ascen at Week(rad): 3.087998078 Argument of Perigee(rad): -0.5682709729 Mean Anom(rad): -0.1624083434 Af0(s): -0.0004838589111 Af1(s/s): 0 week: 360 ******** Week 360 almanac for PRN-7 ******** ID: 7 Health: 0 Eccentricity: 0.0204744339 Time of Applicability(s): 147456 Orbital Inclination(rad): 0.9514180279 Rate of Right Ascen(r/s): -7.737465153e-09 SQRT(A) (m 1/2): 5153.582031 Right Ascen at Week(rad): -0.07945541116 Argument of Perigee(rad): -1.992092766 Mean Anom(rad): -1.028828856 Af0(s): -0.0001228489136 Af1(s/s): -3.637979e-12 week: 360 ******** Week 360 almanac for PRN-8 ******** ID: 8 Health: 0 Eccentricity: 0.01157188416 Time of Applicability(s): 147456 Orbital Inclination(rad): 0.9432088338 Rate of Right Ascen(r/s): -8.343204671e-09 SQRT(A) (m 1/2): 5153.621094 Right Ascen at Week(rad): 1.967935939 Argument of Perigee(rad): 0.5237821594 Mean Anom(rad): 1.799410398 Af0(s): 0.0003828665527 Af1(s/s): -7.275958e-12 week: 360 ******** Week 360 almanac for PRN-9 ******** ID: 9 Health: 0 Eccentricity: 0.003355026245 Time of Applicability(s): 147456 Orbital Inclination(rad): 0.964588691 Rate of Right Ascen(r/s): -8.228914196e-09 SQRT(A) (m 1/2): 5153.723633 Right Ascen at Week(rad): -1.152306819 Argument of Perigee(rad): 2.064977451 Mean Anom(rad): 2.396168248 Af0(s): 0.000607461499 Af1(s/s): 0 week: 360 ******** Week 360 almanac for PRN-10 ******** ID: 10 Health: 0 Eccentricity: 0.01094198227 Time of Applicability(s): 147456 Orbital Inclination(rad): 0.9927396353 Rate of Right Ascen(r/s): -7.863184676e-09 SQRT(A) (m 1/2): 5153.602051 Right Ascen at Week(rad): -2.161495028 Argument of Perigee(rad): -2.255214663 Mean Anom(rad): -2.474853673 Af0(s): -0.0004657707275 Af1(s/s): 0 week: 360 ******** Week 360 almanac for PRN-11 ******** ID: 11 Health: 0 Eccentricity: 0.002207756042 Time of Applicability(s): 147456 Orbital Inclination(rad): 0.9640793615 Rate of Right Ascen(r/s): -7.646032773e-09 SQRT(A) (m 1/2): 5153.531738 Right Ascen at Week(rad): 3.106786346 Argument of Perigee(rad): -2.298517787 Mean Anom(rad): 0.9158745399 Af0(s): -0.0003323703735 Af1(s/s): 1.455192e-11 week: 360 ******** Week 360 almanac for PRN-12 ******** ID: 12 Health: 0 Eccentricity: 0.009026527405 Time of Applicability(s): 147456 Orbital Inclination(rad): 0.9589980501 Rate of Right Ascen(r/s): -8.057478483e-09 SQRT(A) (m 1/2): 5153.715332 Right Ascen at Week(rad): 1.038086295 Argument of Perigee(rad): 1.559523291 Mean Anom(rad): -1.686693145 Af0(s): -0.0004800905395 Af1(s/s): 0 week: 360 ******** Week 360 almanac for PRN-13 ******** ID: 13 Health: 0 Eccentricity: 0.0100069046 Time of Applicability(s): 147456 Orbital Inclination(rad): 0.9761474759 Rate of Right Ascen(r/s): -8.034620388e-09 SQRT(A) (m 1/2): 5153.622559 Right Ascen at Week(rad): -0.977158121 Argument of Perigee(rad): 0.9959965736 Mean Anom(rad): 1.552146252 Af0(s): 0.0005411381592 Af1(s/s): 0 week: 360 ******** Week 360 almanac for PRN-14 ******** ID: 14 Health: 0 Eccentricity: 0.00671339035 Time of Applicability(s): 147456 Orbital Inclination(rad): 0.9423759302 Rate of Right Ascen(r/s): -8.228914196e-09 SQRT(A) (m 1/2): 5153.591797 Right Ascen at Week(rad): 0.9834326118 Argument of Perigee(rad): -2.750122331 Mean Anom(rad): -1.846098317 Af0(s): 0.0005825902466 Af1(s/s): 3.637979e-12 week: 360 ******** Week 360 almanac for PRN-15 ******** ID: 15 Health: 0 Eccentricity: 0.01662015915 Time of Applicability(s): 147456 Orbital Inclination(rad): 0.942417875 Rate of Right Ascen(r/s): -8.514640383e-09 SQRT(A) (m 1/2): 5153.634277 Right Ascen at Week(rad): -1.296400271 Argument of Perigee(rad): 1.500932416 Mean Anom(rad): 0.8027786604 Af0(s): 0.0003090064697 Af1(s/s): 3.637979e-12 week: 360 ******** Week 360 almanac for PRN-16 ******** ID: 16 Health: 0 Eccentricity: 0.01504659653 Time of Applicability(s): 147456 Orbital Inclination(rad): 0.9581172096 Rate of Right Ascen(r/s): -8.103194673e-09 SQRT(A) (m 1/2): 5153.588379 Right Ascen at Week(rad): 1.055066069 Argument of Perigee(rad): 0.9293706497 Mean Anom(rad): 2.826206055 Af0(s): 0.0001725914185 Af1(s/s): 7.275958e-12 week: 360 ******** Week 360 almanac for PRN-17 ******** ID: 17 Health: 0 Eccentricity: 0.0126581192 Time of Applicability(s): 147456 Orbital Inclination(rad): 0.9589501132 Rate of Right Ascen(r/s): -8.114623721e-09 SQRT(A) (m 1/2): 5153.53125 Right Ascen at Week(rad): 2.072663085 Argument of Perigee(rad): -1.122249259 Mean Anom(rad): 1.728669391 Af0(s): -6.104761963e-05 Af1(s/s): -1.091394e-11 week: 360 ******** Week 360 almanac for PRN-18 ******** ID: 18 Health: 0 Eccentricity: 0.005744934082 Time of Applicability(s): 147456 Orbital Inclination(rad): 0.9721747054 Rate of Right Ascen(r/s): -7.588887536e-09 SQRT(A) (m 1/2): 5153.597656 Right Ascen at Week(rad): 3.082970321 Argument of Perigee(rad): -2.864244734 Mean Anom(rad): -0.2565639045 Af0(s): -0.0003255873047 Af1(s/s): 1.091394e-11 week: 360 ******** Week 360 almanac for PRN-19 ******** ID: 19 Health: 0 Eccentricity: 0.01112937927 Time of Applicability(s): 147456 Orbital Inclination(rad): 0.9581471701 Rate of Right Ascen(r/s): -8.103194673e-09 SQRT(A) (m 1/2): 5153.659668 Right Ascen at Week(rad): 2.11656542 Argument of Perigee(rad): 2.930982261 Mean Anom(rad): -2.738250083 Af0(s): 0.0005471675537 Af1(s/s): 0 week: 360 ******** Week 360 almanac for PRN-20 ******** ID: 20 Health: 255 Eccentricity: 0.0003180503845 Time of Applicability(s): 147456 Orbital Inclination(rad): 0.960004725 Rate of Right Ascen(r/s): -8.297488481e-09 SQRT(A) (m 1/2): 5153.640137 Right Ascen at Week(rad): -1.146695955 Argument of Perigee(rad): 1.103935117 Mean Anom(rad): 1.466147828 Af0(s): 2.185655518e-05 Af1(s/s): 2.546585e-11 week: 360 ******** Week 360 almanac for PRN-21 ******** ID: 21 Health: 0 Eccentricity: 0.0007400512695 Time of Applicability(s): 147456 Orbital Inclination(rad): 0.9626112939 Rate of Right Ascen(r/s): -8.183198006e-09 SQRT(A) (m 1/2): 5153.709961 Right Ascen at Week(rad): -2.15273044 Argument of Perigee(rad): -0.3478537377 Mean Anom(rad): -1.95968143 Af0(s): 0.0003195579102 Af1(s/s): 3.637979e-12 week: 360 ******** Week 360 almanac for PRN-22 ******** ID: 22 Health: 0 Eccentricity: 0.0121011734 Time of Applicability(s): 147456 Orbital Inclination(rad): 0.957553951 Rate of Right Ascen(r/s): -8.114623721e-09 SQRT(A) (m 1/2): 5153.565918 Right Ascen at Week(rad): 1.058416784 Argument of Perigee(rad): -0.9937993408 Mean Anom(rad): 2.376957161 Af0(s): -3.090064697e-05 Af1(s/s): 3.637979e-12 week: 360 ******** Week 360 almanac for PRN-23 ******** ID: 23 Health: 0 Eccentricity: 0.00603055954 Time of Applicability(s): 147456 Orbital Inclination(rad): 0.9877482057 Rate of Right Ascen(r/s): -7.874613723e-09 SQRT(A) (m 1/2): 5153.65625 Right Ascen at Week(rad): -2.193584663 Argument of Perigee(rad): -2.737720156 Mean Anom(rad): -1.391177139 Af0(s): 0.0004891346313 Af1(s/s): 3.637979e-12 week: 360 ******** Week 360 almanac for PRN-24 ******** ID: 24 Health: 0 Eccentricity: 0.01790475845 Time of Applicability(s): 147456 Orbital Inclination(rad): 0.9353951192 Rate of Right Ascen(r/s): -7.966046103e-09 SQRT(A) (m 1/2): 5153.604004 Right Ascen at Week(rad): -0.1879017859 Argument of Perigee(rad): 1.134845429 Mean Anom(rad): -0.04647782026 Af0(s): -7.838212891e-05 Af1(s/s): 1.818989e-11 week: 360 ******** Week 360 almanac for PRN-25 ******** ID: 25 Health: 0 Eccentricity: 0.01293897629 Time of Applicability(s): 147456 Orbital Inclination(rad): 0.9474212889 Rate of Right Ascen(r/s): -8.126052768e-09 SQRT(A) (m 1/2): 5153.665527 Right Ascen at Week(rad): 0.9442385787 Argument of Perigee(rad): 1.157143203 Mean Anom(rad): -1.822149716 Af0(s): 0.0003474438599 Af1(s/s): -3.637979e-12 week: 360 ******** Week 360 almanac for PRN-26 ******** ID: 26 Health: 0 Eccentricity: 0.01100635529 Time of Applicability(s): 147456 Orbital Inclination(rad): 0.9282585132 Rate of Right Ascen(r/s): -8.331775623e-09 SQRT(A) (m 1/2): 5153.655762 Right Ascen at Week(rad): 0.8696933292 Argument of Perigee(rad): 0.7093118178 Mean Anom(rad): -2.64297924 Af0(s): -0.0002645396851 Af1(s/s): -7.275958e-12 week: 360 ******** Week 360 almanac for PRN-27 ******** ID: 27 Health: 0 Eccentricity: 0.01435756683 Time of Applicability(s): 147456 Orbital Inclination(rad): 0.9523228368 Rate of Right Ascen(r/s): -8.251772291e-09 SQRT(A) (m 1/2): 5153.603516 Right Ascen at Week(rad): 1.999973517 Argument of Perigee(rad): 0.8812854453 Mean Anom(rad): 1.899963288 Af0(s): -4.446678467e-05 Af1(s/s): -1.091394e-11 week: 360 ******** Week 360 almanac for PRN-28 ******** ID: 28 Health: 0 Eccentricity: 0.0004200935364 Time of Applicability(s): 147456 Orbital Inclination(rad): 0.9623536331 Rate of Right Ascen(r/s): -7.657461821e-09 SQRT(A) (m 1/2): 5153.755371 Right Ascen at Week(rad): -0.1051896616 Argument of Perigee(rad): 0.01992789349 Mean Anom(rad): -0.7157495936 Af0(s): -0.0004627560303 Af1(s/s): 7.275958e-12 week: 360 ******** Week 360 almanac for PRN-29 ******** ID: 29 Health: 0 Eccentricity: 0.003370285034 Time of Applicability(s): 147456 Orbital Inclination(rad): 0.9616106111 Rate of Right Ascen(r/s): -8.057478483e-09 SQRT(A) (m 1/2): 5153.700684 Right Ascen at Week(rad): 2.089389692 Argument of Perigee(rad): 2.739761219 Mean Anom(rad): 1.766493103 Af0(s): -0.0002894109375 Af1(s/s): 7.275958e-12 week: 360 ******** Week 360 almanac for PRN-30 ******** ID: 30 Health: 0 Eccentricity: 0.008055210113 Time of Applicability(s): 147456 Orbital Inclination(rad): 0.9366714391 Rate of Right Ascen(r/s): -7.886042771e-09 SQRT(A) (m 1/2): 5153.714844 Right Ascen at Week(rad): -0.08844994646 Argument of Perigee(rad): -2.319063243 Mean Anom(rad): -1.196528609 Af0(s): 0.0001100364502 Af1(s/s): 1.455192e-11 week: 360 ******** Week 360 almanac for PRN-31 ******** ID: 31 Health: 0 Eccentricity: 0.01086473465 Time of Applicability(s): 147456 Orbital Inclination(rad): 0.9551750824 Rate of Right Ascen(r/s): -7.714607058e-09 SQRT(A) (m 1/2): 5153.529297 Right Ascen at Week(rad): -0.05524465529 Argument of Perigee(rad): 0.9345792934 Mean Anom(rad): -2.125786532 Af0(s): -0.0001296319824 Af1(s/s): 3.637979e-12 week: 360 ******** Week 360 almanac for PRN-32 ******** ID: 32 Health: 0 Eccentricity: 0.009338378906 Time of Applicability(s): 147456 Orbital Inclination(rad): 0.9676446684 Rate of Right Ascen(r/s): -8.194627053e-09 SQRT(A) (m 1/2): 5153.678223 Right Ascen at Week(rad): -1.135299331 Argument of Perigee(rad): -1.998498709 Mean Anom(rad): 2.476771523 Af0(s): -5.351087646e-05 Af1(s/s): 1.818989e-11 week: 360